Change the Weather History Date:

Saturday, January 18, 2014

  Actual Average Record
Temperature  
Mean Temperature 35 °F -  
Max Temperature 37 °F 33 °F 44 °F (2001)
Min Temperature 33 °F 27 °F 14 °F (2004)
Degree Days  
Heating Degree Days 30    
Moisture  
Dew Point 23 °F    
Average Humidity 61    
Maximum Humidity 87    
Minimum Humidity 44    
Precipitation  
Precipitation 0.00 in - - ()
Sea Level Pressure  
Sea Level Pressure 29.32 in    
Wind  
Wind Speed 10 mph (South)    
Max Wind Speed 23 mph    
Max Gust Speed 32 mph    
Visibility 10 miles    
Events      
Averages and records for this station are not official NWS values.
T = Trace of Precipitation, MM = Missing Value Source: NWS Daily Summary

Daily Weather History Graph

Daily Weather History Graph

Search for Another Location

Airport or City:

Trip Planner

Search our weather history database for the weather conditions in past years. The results will help you decide how hot, cold, wet, or windy it might be!

Date:

Astronomy

Jan. 18, 2014 Rise Set
Actual Time 9:52 AM AKST 5:36 PM AKST
Civil Twilight 9:07 AM AKST 6:20 PM AKST
Nautical Twilight 8:20 AM AKST 7:08 PM AKST
Astronomical Twilight 7:35 AM AKST 7:52 PM AKST
Moon 9:10 PM AKST (1/18) 10:20 AM AKST (1/18)
Length of Visible Light 9h 12m
Length of Day
7h 44m
Waning Gibbous, 94% of the Moon is Illuminated
Jan 18
Waning Gibbous
Jan 23
Last Quarter
Jan 30
New
Feb 6
First Quarter
Feb 14
Full

Hourly Weather History & Observations

Time (AKST) Temp. Windchill Dew Point Humidity Pressure Visibility Wind Dir Wind Speed Gust Speed Precip Events Conditions
12:16 AM 35.6 °F 32.8 °F 32.0 °F 87% 28.83 in 10.0 mi North 3.5 mph - N/A   Overcast
12:36 AM 35.6 °F 27.5 °F 32.0 °F 87% 28.85 in 10.0 mi NNW 11.5 mph - N/A   Overcast
12:56 AM 35.6 °F 30.7 °F 30.2 °F 81% 28.87 in 10.0 mi NNW 5.8 mph - N/A   Overcast
1:16 AM 35.6 °F 31.7 °F 30.2 °F 81% 28.89 in 10.0 mi East 4.6 mph - N/A   Overcast
1:36 AM 35.6 °F 27.5 °F 32.0 °F 87% 28.91 in 10.0 mi WSW 11.5 mph - N/A   Mostly Cloudy
1:56 AM 37.4 °F 28.5 °F 28.4 °F 70% 28.93 in 10.0 mi SW 15.0 mph - N/A   Overcast
2:16 AM 37.4 °F 29.8 °F 26.6 °F 65% 28.95 in 10.0 mi SSW 11.5 mph 23.0 mph N/A   Overcast
2:36 AM 37.4 °F 28.9 °F 28.4 °F 70% 28.96 in 10.0 mi SSW 13.8 mph 24.2 mph N/A   Overcast
2:56 AM 37.4 °F 31.4 °F 26.6 °F 65% 28.98 in 10.0 mi SW 8.1 mph - N/A   Overcast
3:16 AM 37.4 °F 32.8 °F 24.8 °F 60% 29.00 in 10.0 mi WSW 5.8 mph 18.4 mph N/A   Overcast
3:36 AM 37.4 °F 29.8 °F 23.0 °F 56% 29.01 in 10.0 mi WSW 11.5 mph 17.3 mph N/A   Mostly Cloudy
3:56 AM 35.6 °F 27.5 °F 28.4 °F 75% 29.03 in 10.0 mi SSW 11.5 mph 21.9 mph N/A   Overcast
4:16 AM 35.6 °F 25.5 °F 26.6 °F 70% 29.05 in 10.0 mi SSW 17.3 mph 23.0 mph N/A   Mostly Cloudy
4:36 AM 35.6 °F 24.2 °F 26.6 °F 70% 29.06 in 10.0 mi SW 21.9 mph 32.2 mph N/A   Mostly Cloudy
4:56 AM 35.6 °F 25.2 °F 23.0 °F 60% 29.08 in 10.0 mi SW 18.4 mph 29.9 mph N/A   Partly Cloudy
5:16 AM 35.6 °F 25.2 °F 21.2 °F 56% 29.09 in 10.0 mi South 18.4 mph 31.1 mph N/A   Scattered Clouds
5:36 AM 35.6 °F 27.5 °F 23.0 °F 60% 29.12 in 10.0 mi WSW 11.5 mph - N/A   Mostly Cloudy
5:56 AM 35.6 °F 28.6 °F 21.2 °F 56% 29.13 in 10.0 mi West 9.2 mph - N/A   Mostly Cloudy
6:16 AM 35.6 °F 28.0 °F 21.2 °F 56% 29.14 in 10.0 mi SSW 10.4 mph 27.6 mph N/A   Overcast
6:36 AM 33.8 °F 27.7 °F 21.2 °F 60% 29.16 in 10.0 mi South 6.9 mph 17.3 mph N/A   Mostly Cloudy
6:56 AM 35.6 °F 24.0 °F 21.2 °F 56% 29.17 in 10.0 mi SSW 23.0 mph - N/A   Scattered Clouds
7:16 AM 35.6 °F 24.5 °F 23.0 °F 60% 29.19 in 10.0 mi SW 20.7 mph 31.1 mph N/A   Mostly Cloudy
7:36 AM 35.6 °F 24.2 °F 19.4 °F 52% 29.20 in 10.0 mi SW 21.9 mph 29.9 mph N/A   Partly Cloudy
7:56 AM 33.8 °F 22.8 °F 19.4 °F 56% 29.22 in 10.0 mi SW 18.4 mph 29.9 mph N/A   Clear
8:16 AM 35.6 °F 24.5 °F 17.6 °F 48% 29.24 in 10.0 mi SW 20.7 mph 27.6 mph N/A   Clear
8:36 AM 35.6 °F 24.8 °F 17.6 °F 48% 29.26 in 10.0 mi SSW 19.6 mph 25.3 mph N/A   Clear
8:56 AM 35.6 °F 25.9 °F 17.6 °F 48% 29.28 in 10.0 mi SSW 16.1 mph 25.3 mph N/A   Clear
9:16 AM 35.6 °F 25.5 °F 17.6 °F 48% 29.29 in 10.0 mi SSW 17.3 mph 26.5 mph N/A   Clear
9:36 AM 35.6 °F 28.6 °F 15.8 °F 44% 29.31 in 10.0 mi SW 9.2 mph 24.2 mph N/A   Clear
9:56 AM 35.6 °F 26.6 °F 17.6 °F 48% 29.33 in 10.0 mi South 13.8 mph 19.6 mph N/A   Clear
10:16 AM 35.6 °F 27.1 °F 17.6 °F 48% 29.34 in 10.0 mi SSW 12.7 mph 17.3 mph N/A   Clear
10:36 AM 35.6 °F 29.2 °F 17.6 °F 48% 29.37 in 10.0 mi SSW 8.1 mph - N/A   Clear
10:56 AM 35.6 °F 28.0 °F 17.6 °F 48% 29.37 in 10.0 mi South 10.4 mph - N/A   Clear
11:16 AM 35.6 °F 28.0 °F 17.6 °F 48% 29.38 in 10.0 mi SSE 10.4 mph - N/A   Clear
11:36 AM 35.6 °F 29.9 °F 19.4 °F 52% 29.39 in 10.0 mi ESE 6.9 mph 23.0 mph N/A   Scattered Clouds
11:56 AM 37.4 °F 28.9 °F 19.4 °F 48% 29.41 in 10.0 mi SSW 13.8 mph 27.6 mph N/A   Partly Cloudy
12:16 PM 35.6 °F 26.2 °F 21.2 °F 56% 29.42 in 10.0 mi SSW 15.0 mph 23.0 mph N/A   Clear
12:36 PM 37.4 °F 32.1 °F 21.2 °F 52% 29.44 in 10.0 mi SE 6.9 mph 18.4 mph N/A   Partly Cloudy
12:56 PM 37.4 °F 30.8 °F 21.2 °F 52% 29.44 in 10.0 mi SSE 9.2 mph - N/A   Partly Cloudy
1:16 PM 37.4 °F 30.8 °F 21.2 °F 52% 29.46 in 8.0 mi WSW 9.2 mph 16.1 mph N/A   Mostly Cloudy
1:36 PM 33.8 °F - 26.6 °F 75% 29.47 in 1.2 mi North - - N/A   Overcast
1:56 PM 33.8 °F - 28.4 °F 81% 29.47 in 10.0 mi Calm Calm - N/A   Mostly Cloudy
2:16 PM 33.8 °F 27.0 °F 28.4 °F 81% 29.47 in 10.0 mi South 8.1 mph - N/A   Overcast
2:36 PM 37.4 °F 32.1 °F 23.0 °F 56% 29.48 in 10.0 mi South 6.9 mph 16.1 mph N/A   Scattered Clouds
2:56 PM 37.4 °F 32.8 °F 21.2 °F 52% 29.48 in 10.0 mi SE 5.8 mph - N/A   Scattered Clouds
3:16 PM 37.4 °F 32.8 °F 19.4 °F 48% 29.49 in 10.0 mi NW 5.8 mph - N/A   Mostly Cloudy
3:36 PM 37.4 °F 30.8 °F 21.2 °F 52% 29.49 in 10.0 mi South 9.2 mph - N/A   Mostly Cloudy
3:56 PM 37.4 °F - 19.4 °F 48% 29.50 in 10.0 mi Calm Calm - N/A   Partly Cloudy
4:16 PM 37.4 °F 32.1 °F 19.4 °F 48% 29.50 in 10.0 mi WSW 6.9 mph - N/A   Partly Cloudy
4:36 PM 37.4 °F 31.4 °F 19.4 °F 48% 29.50 in 10.0 mi SSW 8.1 mph - N/A   Scattered Clouds
4:56 PM 37.4 °F 30.8 °F 19.4 °F 48% 29.51 in 10.0 mi SE 9.2 mph - N/A   Partly Cloudy
5:16 PM 37.4 °F 32.8 °F 21.2 °F 52% 29.52 in 10.0 mi East 5.8 mph - N/A   Mostly Cloudy
5:36 PM 37.4 °F 32.1 °F 23.0 °F 56% 29.52 in 10.0 mi South 6.9 mph - N/A   Overcast
5:56 PM 37.4 °F - 24.8 °F 60% 29.53 in 10.0 mi Calm Calm - N/A   Mostly Cloudy
6:16 PM 35.6 °F - 23.0 °F 60% 29.53 in 10.0 mi Calm Calm - N/A   Overcast
6:36 PM 35.6 °F - 24.8 °F 65% 29.54 in 10.0 mi Calm Calm - N/A   Scattered Clouds
6:56 PM 35.6 °F 31.7 °F 24.8 °F 65% 29.54 in 10.0 mi SSE 4.6 mph - N/A   Clear
7:16 PM 35.6 °F - 24.8 °F 65% 29.55 in 10.0 mi Calm Calm - N/A   Clear
7:36 PM 35.6 °F 28.0 °F 26.6 °F 70% 29.55 in 10.0 mi East 10.4 mph - N/A   Clear
7:56 PM 35.6 °F 31.7 °F 24.8 °F 65% 29.54 in 10.0 mi SE 4.6 mph - N/A   Clear
8:16 PM 35.6 °F 30.7 °F 24.8 °F 65% 29.54 in 10.0 mi ESE 5.8 mph - N/A   Clear
8:36 PM 35.6 °F 30.7 °F 24.8 °F 65% 29.55 in 10.0 mi East 5.8 mph - N/A   Clear
8:56 PM 33.8 °F 27.0 °F 24.8 °F 70% 29.55 in 10.0 mi East 8.1 mph - N/A   Clear
9:16 PM 35.6 °F 30.7 °F 26.6 °F 70% 29.54 in 10.0 mi East 5.8 mph - N/A   Clear
9:36 PM 35.6 °F 31.7 °F 26.6 °F 70% 29.54 in 10.0 mi East 4.6 mph - N/A   Clear
9:56 PM 35.6 °F 29.9 °F 26.6 °F 70% 29.55 in 10.0 mi East 6.9 mph - N/A   Mostly Cloudy
10:16 PM 35.6 °F 29.9 °F 26.6 °F 70% 29.55 in 10.0 mi ESE 6.9 mph - N/A   Mostly Cloudy
10:36 PM 35.6 °F 29.9 °F 24.8 °F 65% 29.56 in 10.0 mi East 6.9 mph - N/A   Scattered Clouds
10:56 PM 35.6 °F 30.7 °F 24.8 °F 65% 29.56 in 10.0 mi East 5.8 mph - N/A   Clear
11:16 PM 35.6 °F 29.9 °F 24.8 °F 65% 29.55 in 10.0 mi East 6.9 mph - N/A   Scattered Clouds
11:36 PM 35.6 °F 30.7 °F 26.6 °F 70% 29.55 in 10.0 mi East 5.8 mph - N/A   Mostly Cloudy
11:56 PM 35.6 °F 30.7 °F 26.6 °F 70% 29.54 in 10.0 mi East 5.8 mph - N/A   Mostly Cloudy